www.pogodaiklimat.ru

Погода и климат >> Архив погоды >> Россия >> Волгоградская область >> Иловля


ПОГОДА в Иловле

  • Прогноз погоды в Иловле
  • Монитор погоды в Иловле

АРХИВ ПОГОДЫ в Иловле

Время (UTC), дата Ветер
(напр.,м/с)
 
Видим.   Явления Облачность Т
(С)
Тd
(С)
f
(%)
Тe
(С)
Тes
(С)
Комфортность P
(гПа)
Po
(гПа)
Тmin
(С)
Tmax
(С)
R
(мм)
R24
(мм)
S
(см)
00 16.09 штиль 0 10 км 10/0
[Cs]
+6.1 +1.5 72 +5 +5 1018.2 1012.7
03 16.09 Ю 1 10 км 10/0
[Ac trans Cs]
+5.6 +1.0 72 +5 +5 1017.7 1012.2 +5.2
06 16.09 ЮЗ 4
{10}
10 км 3/0
[Ci fib]
+18.2 +0.2 30 +18 +21 1015.7 1010.5
09 16.09 ЮЗ 4-11
{11}
10 км ясно +22.7 -1.0 21 +22 +28 комфорт 1013.0 1007.8
12 16.09 ЮЗ 4-11
{12}
10 км 3/0
[Ci fib]
+24.5 -2.5 17 +23 +26 комфорт 1009.9 1004.7
15 16.09 ЮЗ 2
{11}
10 км 4/1 600 м
[Sc Ci fib]
+22.5 -2.2 19 +21 +21 комфорт 1008.6 1003.4 +25.2
18 16.09 ЮЗ 2 10 км 1/0
[Ci fib]
+17.7 -1.6 27 +18 +18 1008.8 1003.5
21 16.09 ЮЗ 2 10 км ясно +16.8 -0.4 31 +17 +17 1008.0 1002.7
00 17.09 Ю 1 10 км 3/0
[Ci fib]
+13.8 +1.0 42 +14 +14 1007.5 1002.2
03 17.09 Ю 1 10 км 5/0
[Ac trans]
+10.5 +2.2 56 +11 +11 1007.3 1001.9 +10.5
06 17.09 ЮЗ 2 10 км 10/8 600 м
[Sc Ac und]
+17.6 +3.2 38 +18 +18 1006.9 1001.7 +10.4
09 17.09 ЮЗ 1 10 км 8/4 600 м
[Sc Ac trans]
+22.2 +6.3 36 +23 +27 комфорт 1016.1 1001.0
12 17.09 З 5 10 км 9/4 600 м
[Sc Ac trans]
+24.2 +5.7 30 +24 +25 комфорт 1004.2 999.1
15 17.09 З 3
{12}
10 км 10/8 300 м
[Cb calv Ac und]
+21.0 +5.6 37 +22 +22 комфорт 1004.5 999.3
18 17.09 З 1
{10}
10 км слаб. ливневой дождь 10/10 300 м
[Cb calv]
+16.2 +9.4 64 +17 +17 1006.2 1000.9
21 17.09 З 1 10 км {ливн. осадки} 5/5 600 м
[Sc]
+14.2 +8.6 69 +15 +15 1006.6 1001.3
00 18.09 З 1 10 км ясно +10.9 +7.7 81 +11 +11 1007.2 1001.9
03 18.09 штиль 0 10 км ясно +7.0 +5.2 88 +6 +6 1007.9 1002.5 +7.0
06 18.09 Ю 2 10 км 3/0
[Ac trans]
+15.5 +7.5 59 +15 +19 1007.8 1002.5
09 18.09 ЮЗ 3 10 км 5/3 1000 м
[Cu hum Ac trans]
+20.7 +6.5 40 +22 +27 комфорт 1006.3 1001.1
12 18.09 ЮЗ 4
{10}
10 км 8/3 300 м
[Cb calv Ac trans]
+21.3 +7.5 41 +22 +24 комфорт 1003.6 998.4
15 18.09 ЮВ 1
{10}
10 км слаб. ливневой дождь 10/10 300 м
[Cb calv]
+14.5 +12.4 87 +15 +15 1001.6 996.4 +22.0 2
18 18.09 З 3 10 км {ливн. осадки} 10/10 300 м
[Frnb]
+14.9 +12.0 83 +14 +14 1003.1 997.8
21 18.09 З 4
{13}
10 км 4/0
[Ac trans]
+11.4 +5.9 69 +9 +9 1006.0 1000.7
00 19.09 З 4 10 км ясно +9.7 +3.1 63 +7 +7 1007.8 1002.4
03 19.09 З 3 10 км ясно +8.5 +2.2 65 +6 +6 1009.8 1004.4 +8.3
06 19.09 З 5-10
{12}
10 км 10/10 600 м
[Sc]
+10.2 +3.4 63 +7 +7 1013.6 1008.1
09 19.09 З 3
{11}
10 км 8/8 1000 м
[Cu med, cong]
+13.5 +4.0 53 +13 +14 1015.1 1009.7
12 19.09 З 3
{10}
10 км 8/8 600 м
[Cb calv]
+15.6 +3.8 45 +15 +16 1016.1 1010.8
15 19.09 З 3
{10}
10 км 3/3 600 м
[Sc]
+11.8 +3.4 56 +10 +10 1017.6 1012.2 +15.7
18 19.09 штиль 0 10 км ясно +7.5 +2.8 72 +7 +7 1018.5 1013.1
21 19.09 штиль 0 10 км ясно +4.4 +1.9 84 +3 +3 1018.7 1013.1
00 20.09 штиль 0 10 км 4/0
[Ac trans]
+2.9 +1.1 88 +2 +2 1018.6 1013.0
03 20.09 штиль 0 10 км 8/5 600 м
[Sc Ac trans]
+5.5 +2.6 82 +5 +5 1018.3 1012.8 +2.7
06 20.09 Ю 1 10 км 10/1 600 м
[Sc Ac trans Cs]
+12.0 +4.4 60 +12 +14 1018.1 1012.7
09 20.09 Ю 2 10 км 10/5 600 м
[Cb calv Ac trans Cs]
+16.1 +4.1 45 +16 +19 1016.6 1011.3
12 20.09 ЮЗ 1 10 км 10/6 300 м
[Cb calv Ac und]
+17.0 +0.6 33 +18 +19 1015.1 1009.8
15 20.09 ЮЗ 1 10 км 10/8 300 м
[Cb calv Ac As]
+14.4 +2.4 44 +15 +15 1014.4 1009.1 +17.4
18 20.09 Ю 3 10 км 10/10 600 м
[Sc]
+11.6 +4.5 62 +10 +10 1015.1 1009.7
21 20.09 ЮЗ 1 10 км слаб. ливневой дождь 10/10 300 м
[Cb calv]
+10.1 +5.3 72 +10 +10 1014.7 1009.3
00 21.09 З 1 10 км {ливн. осадки} 10/10 600 м
[Sc]
+9.1 +6.0 81 +9 +9 1013.7 1008.3
03 21.09 штиль 0 10 км 10/4 600 м
[Cb calv Ac trans Cs]
+7.4 +5.1 85 +7 +7 1013.5 1008.0 +7.4 0.3
06 21.09 СЗ 1 10 км ясно +12.0 +5.9 66 +12 +17 1013.2 1007.8 +7.4
09 21.09 СЗ 3 10 км 6/5 1000 м
[Cu med, cong Ac trans]
+16.2 +0.5 34 +16 +19 1012.5 1007.2
12 21.09 СЗ 2 10 км 9/8 300 м
[Cb calv Ac trans]
+15.3 -0.3 34 +15 +16 1012.0 1006.7
15 21.09 З 1
{10}
10 км 6/4 600 м
[Sc diur, vesp Ac trans Ci fib]
+11.2 +3.9 61 +11 +11 1013.1 1007.7 +17.6
18 21.09 З 1 10 км 6/6 600 м
[Sc]
+6.9 +3.1 77 +6 +6 1013.8 1008.3
21 21.09 З 2 10 км 4/4 600 м
[Sc]
+6.1 +3.0 80 +4 +4 1013.7 1008.2
00 22.09 З 2 10 км 9/9 600 м
[Sc]
+5.0 +2.5 84 +2 +2 1013.6 1008.1
03 22.09 штиль 0 10 км 6/3 600 м
[Sc Ac trans]
+4.0 +1.7 85 +3 +3 1013.6 1008.1 +4.0
06 22.09 ЮЗ 3 10 км 10/0
[Ac trans Cs]
+9.8 +2.0 58 +8 +10 1012.7 1007.3
09 22.09 ЮЗ 4-10
{12}
10 км слаб. ливневой дождь 10/10 300 м
[Cb calv]
+9.7 +2.0 59 +7 +7 1009.5 1004.1
12 22.09 ЮЗ 4-10
{13}
10 км в посл. час ливневой дождь 10/10 300 м
[Sc]
+9.2 +6.2 81 +6 +6 1005.8 1000.4
15 22.09 ЮЗ 3
{11}
10 км слаб. ливневой дождь 10/10 300 м
[Cb calv]
+11.7 +8.7 82 +10 +10 1004.6 999.2 +11.7 2
18 22.09 З 3
{12}
10 км {ливн. осадки} ясно +12.1 +8.1 77 +11 +11 1005.5 1000.2
21 22.09 СЗ 3 10 км 10/10 600 м
[Sc]
+11.2 +3.6 59 +10 +10 1006.8 1001.5

 

Местоположение метеостанции Иловля (Волгоградская область, Россия): широта 49.30 долгота 44.00 высота над уровнем моря 44 м.

В архиве по умолчанию представлена погода в Иловле за последнюю неделю. Архивные данные за месяц целиком и за предыдущие месяцы, начиная с января 2011 года, Вы можете получить, выбрав интересующий диапазон дат из раскрывающегося списка и нажав кнопку "Ввод!".


*Определитесь, кто Вы:
робот инопланетянин человек

Внимание! Время в таблицах - всемирное. Для получения местного времени необходимо прибавить поправку, которая равна 3 ч.

Смотрите также архив погоды в соседних городах и на ближайших метеорологических станциях:

Погода в Фролове (Волгоградская область, Россия) (60 км)
Погода в Волгограде (Волгоградская область, Россия) (64 км)
Погода в Ольховке (Волгоградская область, Россия) (75 км)
Погода в Волгограде город (Волгоградская область, Россия) (77 км)
Погода в Калаче-на-Дону (Волгоградская область, Россия) (79 км)
Погода в Серафимовиче (Волгоградская область, Россия) (97 км)
Погода в Михайловке (Волгоградская область, Россия) (101 км)
Погода в Даниловке (Волгоградская область, Россия) (119 км)
Погода в Нижнем Чире (Волгоградская область, Россия) (126 км)
Погода в Камышине (Волгоградская область, Россия) (131 км)

Пояснения к столбцам:

Ветер - указаны скорость ветра в м/с - средняя за 10 мин, порывы в срок и между сроками (в фигурных скобках) и направление, откуда дует ветер: С - северный, СВ - северо-восточный, В - восточный, ЮВ - юго-восточный, Ю - южный, ЮЗ - юго-западный, З - западный, СЗ - северо-западный.
Видимость - горизонтальная дальность видимости в метрах или километрах. При видимости от 1 до 10 км при отсутствии осадков обычно наблюдается дымка, при ухудшении видимости до 1 км и менее - туман. В сухую погоду видимость может ухудшаться дымом, пылью или мглою.
Явления - указаны атмосферные явления, наблюдавшиеся в срок или в последний час перед сроком; фигурными скобками обозначены явления, наблюдавшиеся между сроками (за 1-3 часа до срока); квадратными скобками обозначены град или гололедные отложения с указанием их диаметра в мм.
Облачность - указаны через наклонную черту общая и нижняя облачность в баллах и высота нижней границы облаков в метрах; квадратными скобками обозначены формы облаков: Ci - перистые, Cs - перисто-слоистые, Cc - перисто-кучевые, Ac - высококучевые, As - высокослоистые, Sc - слоисто-кучевые, Ns - слоисто-дождевые, Cu - кучевые, Cb - кучево-дождевые. Подробнее классификацию облаков см. в Атласе облаков (PDF).
T - Температура воздуха - температура, измеренная на высоте 2 м над землей.
Td - Температура точки росы - температура, при понижении до которой содержащийся в воздухе водяной пар достигнет насыщения.
f - Относительная влажность воздуха - влажноcть воздуха, измеренная на высоте 2 м над землей.
Te - Эффективная температура - температура, которую ощущает одетый по сезону человек в тени. Характеристика душности погоды. При расчете учитывается влияние влажности воздуха и скорости ветра на теплоощущения человека.
Tes - Эффективная температура на солнце - температура, которую ощущает человек, с поправкой на солнечный нагрев. Характеристика знойности погоды. Зависит от высоты солнца над горизонтом, облачности и скорости ветра. Ночью, в пасмурную погоду, а также при ветре 12 м/с и более поправка равна нулю.
P - Атмосферное давление - приведенное к уровню моря атмосферное давление.
Po - Атмосферное давление - измеренное на уровне метеостанции атмосферное давление.
Tmin - Минимальная температура - минимум температуры воздуха на высоте 2 м над землей.
Tmax - Максимальная температура - максимум температуры воздуха на высоте 2 м над землей.
R - Количество осадков - Количество выпавших осадков за период времени, мм. При наведении курсора мыши на число - период времени, за который выпало указанное количество осадков.
R24 - Количество осадков - Количество выпавших осадков за 24 часа, мм.
S - Снежный покров - Высота снежного покрова, см. При наведении курсора мыши на число - состояние снежного покрова и степень покрытия местности в баллах.